Regional Weather Roundup
Issued by NWS

Home | Current Version | Previous Version | Text Only | Print | Product List | Glossary Off
Versions: 1 2 3 4 5 6 7 8 9 10 11 12 13 14 15 16 17 18 19 20 21 22 23 24 25 26 27 28 29 30 31 32 33 34 35 36 37 38 39 40 41 42 43 44 45 46 47 48 49 50

823
ASUS43 KMKX 222300
RWRWI

WISCONSIN REGIONAL WEATHER ROUNDUP
NATIONAL WEATHER SERVICE MILWAUKEE/SULLIVAN WI
600 PM CDT SAT JUL 22 2017

NOTE: "FAIR" INDICATES FEW OR NO CLOUDS BELOW 12,000 FEET WITH NO
SIGNIFICANT WEATHER AND/OR OBSTRUCTIONS TO VISIBILITY.

WIZ001-002-006>008-014>016-023>028-230000-
NORTHWEST WISCONSIN

CITY           SKY/WX    TMP DP  RH WIND       PRES   REMARKS
SUPERIOR ARPT  NOT AVBL
ASHLAND        SUNNY     74  65  73 NE7       29.81F
HAYWARD        SUNNY     83  64  52 N6        29.81F HX  84
SIREN          SUNNY     85  61  45 NW8       29.81S HX  85
CUMBERLAND     MOSUNNY   81  61  50 NW7       29.82S HX  81
RICE LAKE      MOSUNNY   83  64  52 NW6       29.83S HX  85
CHETEK         MOSUNNY   84  66  55 NW3       29.81R HX  86
LADYSMITH      PTSUNNY   85  65  51 W8        29.83S HX  86
EAU CLAIRE     NOT AVBL
MENOMONIE      PTSUNNY   80  70  72 S6        29.80S HX  82
NEW RICHMOND   MOSUNNY   84  65  53 NW6       29.82S HX  86
OSCEOLA        MOSUNNY   86  64  47 W10       29.83S HX  87
$$

WIZ003>005-009-010-017-018-230000-
NORTH CENTRAL WISCONSIN

CITY           SKY/WX    TMP DP  RH WIND       PRES   REMARKS
MANITOWISH WTR SUNNY     80  65  59 NW10G16   29.82S HX  82
ARBOR VITAE    MOSUNNY   80  66  63 NW6       29.80S HX  82
WOODRUFF       MOSUNNY   80  66  63 NW6       29.80S HX  82
RHINELANDER    CLOUDY    83  67  58 W10       29.80F HX  85
EAGLE RIVER    MOSUNNY   82  64  54 NW8       29.80F HX  83
LAND O LAKES   MOSUNNY   80  63  56 N9        29.82S HX  81
PHILLIPS       SUNNY     80  66  61 W5        29.80S HX  82
TOMAHAWK         N/A     83  62  48 W9        29.80F HX  84
MEDFORD        CLOUDY    82  65  57 W6        29.81F HX  83
MERRILL        MOSUNNY   85  67  55 W6        29.80S HX  88
$$

WIZ029-030-035-036-043>047-230000-
CENTRAL WISCONSIN

CITY           SKY/WX    TMP DP  RH WIND       PRES   REMARKS
WAUSAU         SUNNY     82  66  58 W9        29.77F HX  84
MOSINEE        PTSUNNY   82  66  57 W6        29.81F HX  85
MARSHFIELD     MOSUNNY   84  67  56 W7        29.80S HX  86
STEVENS POINT  MOSUNNY   83  66  55 NW8       29.81S HX  85
WAUPACA        SUNNY     87  69  53 SE7       29.79F HX  91
WAUTOMA        SUNNY     84  70  62 CALM      29.79F HX  88
WISC RAPIDS    MOSUNNY   86  68  54 VRB6      29.80F HX  89
CAMP DOUGLAS   NOT AVBL
$$

WIZ011>013-019>022-031-037>040-048>050-230000-
NORTHEAST WISCONSIN

CITY           SKY/WX    TMP DP  RH WIND       PRES   REMARKS
ANTIGO         MOSUNNY   81  67  61 W7        29.81S HX  83
SHAWANO        MOSUNNY   85  68  55 CALM      29.78S HX  88
OCONTO         SUNNY     79  66  64 S6        29.78F HX  81
STURGEON BAY     N/A     76  64  66 SE9       29.80F
GREEN BAY      MOSUNNY   82  70  66 S6        29.78F HX  86
MANITOWOC      NOT AVBL
APPLETON       MOSUNNY   82  63  51 VRB5      29.79S HX  83
CLINTONVILLE   SUNNY     82  66  57 S6        29.78F HX  85
OSHKOSH        SUNNY     82  69  64 E6        29.79F HX  85
$$

WIZ032>034-041-042-053>061-230000-
SOUTHWEST WISCONSIN

CITY           SKY/WX    TMP DP  RH WIND       PRES   REMARKS
LA CROSSE      SUNNY     85  72  65 S5        29.80S HX  91
SPARTA         SUNNY     83  70  65 SW3       29.82S HX  86
VIROQUA        MOSUNNY   82  72  72 W5        29.84S HX  86
BOSCOBEL       MOSUNNY   85  71  63 CALM      29.81S HX  90
PRAIRIE DU CHI MOSUNNY   83  70  63 CALM      29.81S HX  87
PLATTEVILLE    MOSUNNY   83  76  80 CALM      29.83R HX  91
$$

WIZ056-057-062-063-064-067-068-230000-
SOUTH CENTRAL WISCONSIN

CITY           SKY/WX    TMP DP  RH WIND       PRES   REMARKS
REEDSBURG      SUNNY     81  71  70 CALM      29.81F HX  85
BARABOO/DELLS  SUNNY     83  67  56 SW3       29.81F HX  86
LONE ROCK      NOT AVBL
MINERAL POINT  MOSUNNY   82  73  74 CALM      29.83S HX  88
MADISON        PTSUNNY   83  70  64 N3        29.80F HX  87
MIDDLETON      SUNNY     83  74  72 CALM      29.82F HX  90
WATERTOWN      MOSUNNY   80  71  75 NW5       29.81S HX  83
MONROE         MOSUNNY   82  72  69 CALM      29.82S HX  87
JANESVILLE     PTSUNNY   84  70  61 CALM      29.80F HX  88
$$

WIZ051-052-058>065-066-070>072-230000-
SOUTHEAST WISCONSIN

CITY           SKY/WX    TMP DP  RH WIND       PRES   REMARKS
MILWAUKEE      PTSUNNY   78  70  76 E7        29.80F HX  80
WAUKESHA       MOSUNNY   79  68  69 W6        29.82S HX  81
MILWAUKEE/TIMM MOSUNNY   81  66  61 E6        29.81S HX  83
RACINE           N/A     76  70  82 E6        29.82F
KENOSHA        MOSUNNY   78  71  79 E8        29.81S HX  80
FOND DU LAC    SUNNY     82  67  60 CALM      29.80F HX  84
SHEBOYGAN      PTSUNNY   77  67  71 E6        29.81S
WEST BEND      PTSUNNY   81  72  74 SE3       29.80F HX  84
JUNEAU         MOSUNNY   79  69  69 CALM      29.82F HX  82
$$

LSZ147-162-230000-
LAKE SUPERIOR

STATION/POSITION TIME  TEMP    WIND        PRES    WAVE
                       AIR SEA DIR/SP/G            HT/PER
                 (UTC) (F)     (DEG/KT/KT) (MB)    (FT/S)
W MID LAKE BUOY  2150   49 48   20/  6/  8 1010.4S   2/ 4
DEVILS ISLAND    2200   54      40/ 10/ 11 1010.6F
PORT WING        2147   60      20/ 13/ 15 1010.2F
SAXON HARBOR     2240   64      50/  7/  8 1009.8F
$$

LMZ867-665-643>646-230000-
LAKE MICHIGAN

STATION/POSITION TIME  TEMP    WIND        PRES    WAVE
                       AIR SEA DIR/SP/G            HT/PER
                 (UTC) (F)     (DEG/KT/KT) (MB)    (FT/S)
CHAMBERS ISLAND  2240   78     120/  2/  5 1008.1S
S GREEN BAY BUOY 2230   78 76  160/  4/  6 1008.7F
N MID LAKE BUOY  2150   70 70   50/  4/  4 1009.3F   0
NORTHPORT PIER   2240   73     140/  5/  7 1009.1R
KEWAUNEE LAKESHO 2230   72     150/  5/  7 1008.9F
SHEBOYGAN LAKESH 2200   70     120/  4/  4 1009.0F
PORT WASHINGTON  2240   72     170/  4/  5 1010.2S
ATWATER BUOY     2109   69 69   90/  4/  6 1009.9F
MILWAUKEE LAKESH 2230   73      80/  2/  2   N/A
S MID LAKE BUOY  2150   70 71  360/  6/  8 1009.5R   1/ 4
KENOSHA   LAKESH 2200   76     100/  4/  4 1009.1
$$

TC  - TEMPERATURE IN CELSIUS
VSB - VISIBILITY IN STATUTE MILES
WCI - WIND CHILL INDEX
HX  - HEAT INDEX





USA.gov is the U.S. government's official web portal to all federal, state and local government web resources and services.